SCP
0 0 0 0 0 0 0 0 0 0 0 0 0 0 0 0 0 0 0 0 0 0 0 0 0 0 0 0 0 0 0 0 0 0 0 0 0 0 0 0 0 0 0
0 0 0 0 0 0 0 0 0 0 0 0 0 0 0 0 0 0 0 0 0 0 0 0 0 0 0 0 0 0 0 0 0 0 0 0 0 0 0 0 0 0 0
0 0 0 0 0 0 0 0 0 0 0 0 0 0 0 0 0 0 0 0 0 0 0 0 0 0 0 0 0 0 0 0 0 0 0 0 0 0 0 0 0 0 0
-0 0 0 0 0 0 0 0 0 0 0 0 0 0 0 0 0 0 0 0 0 0 0 0 0 0 0 0 0 0 0 0 0 0 0 0 0 0 0 0 0 0 0
0 0 0 0 0 0 0 0 0 0 0 0 0 0 0 0 0 0 0 0 0 0 0 0 0 0 0 0 0 0 0 0 0 0 0 0 0 0 0 0 0 0 0
0 0 0 0 0 0 0 0 0 0 0 0 0 0 0 0 0 0 0 0 0 0 0 0 0 0 0 0 0 0 0 0 0 0 0 0 0 0 0 0 0 0 0
0 0 0 0 0 0 0 0 0 0 0 0 0 0 0 0 0 0 0 0 0 0 0 0 0 0 0 0 0 0 0 0 0 0 0 0 0 0 0 0 0 0 0
0 0 0 0 0 0 0 0 0 0 0 0 0 0 0 0 0 0 0 0 0 0 0 0 0 0 0 0 0 0 0 0 0 0 0 0 0 0 0 0 0 0 0
0 0 0 0 0 0 0 0 0 0 0 0 0 0 0 0 0 0 0 0 0 0 0 0 0 0 0 0 0 0 0 0 0 0 0 0 0 0 0 0 0 0 0
0 0 0 0 0 0 0 0 0 0 0 0 0 0 0 0 0 0 0 0 0 0 0 0 0 0 0 0 0 0 0 0 0 0 0 0 0 0 0 0 0 0 0
0 0 0 0 0 0 0 0 0 0 0 0 0 0 0 0 0 0 0 0 0 0 0 0 0 0 0 0 0 0 0 0 0 0 0 0 0 0 0 0 0 0 0
0 0 0 0 0 0 0 0 0 0 0 0 0 0 0 0 0 0 0 0 0 0 0 0 0 0 0 0 0 0 0 0 0 0 0 0 0 0 0 0 0 0 0
0 0 0 0 0 0 0 0 0 0 0 0 0 0 0 0 0 0 0 0 0 0 0 0 0 0 0 0 0 0 0 0 0 0 0 0 0 0 0 0 0 0 0
0 0 0 0 0 0 0 0 0 0 0 0 0 0 0 0 0 0 0 0 0 0 0 0 0 0 0 0 0 0 0 0 0 0 0 0 0 0 0 0 0 0 0
0 0 0 0 0 0 0 0 0 0 0 0 0 0 0 0 0 0 0 0 0 0 0 0 0 0 0 0 0 0 0 0 0 0 0 0 0 -0 0 0 0 0 0
0 0 0 0 0 0 0 0 0 0 0 0 0 0 0 0 0 0 0 0 0 0 0 0 0 0 0 0 0 0 0 0 0 0 0 0 -0 -0 0 0 0 0 0
0 0 0 0 0 0 0 0 0 0 0 0 0 0 0 0 0 0 0 0 0 0 0 0 0 0 0 0 0 0 0 0 0 0 0 0 0 0 0 0 0 0 0
0 0 0 0 0 0 0 0 0 0 0 0 0 0 0 0 0 0 0 0 0 0 0 0 0 0 0 0 0 0 0 0 0 0 0 0 0 0 0 0 0 0 0
0 0 0 0 0 0 0 0 0 0 0 0 0 0 0 0 0 0 0 0 0 0 0 0 0 0 0 0 0 0 0 0 0 0 0 0 0 0 0 0 0 0 0
0 0 0 0 0 0 0 0 0 0 0 0 0 0 0 0 0 0 0 0 0 0 0 0 0 0 0 0 0 0 0 0 0 0 0 0 0 0 0 0 0 0 0
0 0 0 0 0 0 0 0 0 0 0 0 0 0 0 0 0 0 0 0 0 0 0 0 0 0 0 0 0 0 0 0 0 0 0 0 0 0 0 0 0 0 0
0 0 0 0 0 0 0 0 0 0 0 0 0 0 0 0 0 0 0 0 0 0 0 0 0 0 0 0 0 0 0 0 0 0 0 0 0 0 0 0 0 0 0
0 0 0 0 0 0 0 0 0 0 0 0 0 0 0 0 0 0 0 0 0 0 0 0 0 0 0 0 0 0 0 0 0 0 0 0 0 0 0 0 0 0 0
0 0 0 0 0 0 0 0 0 0 0 0 0 0 0 0 0 0 0 0 0 0 0 0 0 0 0 0 0 0 0 0 0 0 0 0 0 0 0 0 0 0 0
0 0 0 0 0 0 0 0 0 0 0 0 0 0 0 0 0 0 0 0 0 0 0 0 0 0 0 0 0 0 0 0 0 0 0 0 0 0 0 0 0 0 0
0 0 0 0 0 0 0 0 0 0 0 0 0 0 0 0 0 0 0 0 0 0 0 0 0 0 0 0 0 0 0 0 0 0 0 0 0 0 0 0 0 0 0
Wind_Speed
4 3 3 3 3 3 2 2 3 3 2 2 2 2 2 1 2 2 2 2 2 2 2 2 2 2 2 3 3 3 4 3 2 2 2 3 4 4 4 3 4 4 4
3 3 3 3 3 3 3 3 3 3 3 2 3 2 2 2 2 2 3 3 3 3 3 3 2 3 3 3 3 3 3 3 3 2 2 3 4 3 3 3 3 4 3
4 3 3 3 3 3 3 3 3 3 3 3 2 2 3 3 2 3 3 3 3 3 4 4 4 3 3 3 4 4 5 4 4 4 3 3 3 2 3 4 4 4 3
4 3 4 4 4 3 3 3 3 3 3 3 2 3 3 3 4 3 3 4 4 4 4 5 5 4 4 4 5 4 5 5 4 4 4 4 3 3 3 4 4 5 4
3 4 4 4 4 3 2 3 3 3 3 3 3 4 4 4 3 4 5 5 4 5 5 5 5 5 4 5 5 5 6 5 6 5 4 5 4 5 4 5 4 4 4
4 4 4 3 3 2 2 2 2 3 3 3 3 4 4 5 5 5 5 4 4 5 6 6 6 6 5 5 6 6 7 6 7 6 6 5 5 5 5 6 6 5 4
4 4 4 3 3 3 3 3 3 3 3 3 4 4 5 5 6 6 6 5 5 5 6 6 6 6 6 6 6 7 7 8 8 8 7 7 7 5 5 6 5 6 4
4 5 4 4 3 3 3 3 3 4 4 5 5 5 5 4 4 6 5 6 5 5 6 7 7 8 7 7 7 7 8 8 9 9 10 7 7 6 6 6 5 6 6
5 5 5 4 4 4 4 4 4 4 5 5 5 6 5 5 6 6 6 6 6 6 7 7 8 8 8 8 8 7 8 8 9 9 10 9 7 7 7 6 6 6 7
6 6 6 4 4 4 4 5 5 5 6 6 5 5 6 6 6 6 7 7 7 7 7 7 7 8 8 8 8 8 8 9 9 8 10 10 8 7 7 7 7 7 8
7 6 6 5 5 5 5 5 5 6 6 6 6 6 6 6 6 6 7 7 7 7 7 7 7 7 8 8 8 9 9 10 10 9 10 10 10 7 7 7 7 8 8
6 6 6 6 6 6 6 6 6 6 6 6 7 7 7 6 6 7 7 6 7 6 7 7 7 8 8 8 8 9 9 10 10 10 10 10 8 10 8 7 8 8 8
7 6 6 6 6 7 7 7 7 7 7 7 7 7 7 6 7 8 7 6 6 7 7 7 8 8 8 8 9 9 9 10 10 10 10 10 10 10 8 9 8 8 7
6 6 7 7 7 7 7 7 7 7 7 7 7 7 7 7 7 8 7 6 6 7 7 7 8 8 8 9 9 9 9 9 9 10 10 10 10 10 10 9 9 8 8
7 7 8 8 7 8 7 7 7 7 7 7 7 8 8 7 7 7 6 6 6 7 7 8 8 8 8 8 8 9 9 10 10 9 10 10 10 11 10 8 9 9 8
8 8 8 8 8 8 8 8 8 7 7 8 8 8 8 7 7 7 7 6 6 6 7 7 8 8 7 9 10 10 9 9 9 9 9 10 10 11 13 13 12 11 10
8 8 9 8 8 8 8 8 8 8 7 8 8 8 8 8 7 7 6 6 6 7 7 7 8 8 9 10 11 11 9 8 8 9 8 7 7 10 10 11 12 11 11
8 8 8 8 8 8 8 8 7 7 7 8 8 8 7 8 7 7 7 7 6 6 6 7 7 8 8 9 10 10 9 8 9 9 8 8 8 7 8 9 9 9 9
8 7 7 8 8 7 7 7 7 7 7 8 8 8 8 8 7 7 7 7 6 6 7 6 7 7 7 8 9 9 7 7 8 8 8 8 8 8 8 8 9 9 8
6 6 7 7 7 7 7 7 7 7 8 8 8 8 8 8 8 8 7 7 6 7 6 6 6 7 7 8 8 9 6 6 7 6 7 8 9 8 9 8 8 9 7
7 6 6 6 6 7 6 7 8 8 8 8 8 8 7 7 8 7 6 6 6 7 6 6 6 7 7 8 8 8 6 6 6 5 5 5 8 9 9 9 8 8 7
7 6 6 6 6 6 6 7 8 8 8 8 8 8 8 7 6 6 6 6 6 7 6 6 6 5 6 7 7 8 8 7 6 5 5 5 7 8 9 8 7 8 7
6 6 6 7 7 6 6 8 8 8 8 8 8 7 7 7 6 6 7 6 6 5 5 5 5 5 4 5 7 7 7 8 6 5 6 6 7 7 7 7 7 6 5
6 6 6 7 7 7 7 7 8 8 7 8 7 7 7 7 6 5 5 5 5 5 5 5 5 4 4 4 3 4 4 5 6 5 4 5 5 4 5 5 4 4 4
6 6 6 7 8 8 8 8 7 7 7 7 6 6 6 6 6 6 5 6 6 6 6 5 5 4 4 4 5 4 3 3 3 3 3 3 2 2 2 2 3 3 3
6 6 7 7 8 8 8 8 7 6 6 6 6 5 5 5 5 6 6 7 8 9 9 8 7 6 6 6 5 5 5 4 4 3 2 2 2 2 2 2 2 2 2
Wind_Direction
271 276 284 284 288 292 287 287 295 304 307 293 273 261 248 258 248 248 250 242 253 260 255 251 247 249 246 248 240 224 221 225 229 247 260 255 247 247 239 238 239 231 233
278 287 285 286 288 284 291 293 294 295 298 294 279 268 272 257 253 254 246 242 247 254 255 257 247 250 251 248 244 230 220 223 220 241 252 254 234 229 242 243 245 243 233
276 278 276 280 282 281 287 288 292 297 297 292 281 271 251 248 248 252 251 246 248 249 253 255 250 241 243 239 244 240 228 220 225 230 238 246 248 265 228 233 240 245 242
292 289 287 287 284 280 286 284 287 290 288 284 277 264 260 262 265 263 260 255 250 250 250 251 251 243 241 240 238 241 242 225 221 228 246 259 273 254 252 225 234 247 250
305 296 292 282 279 281 288 285 284 291 292 287 281 271 267 264 268 265 258 253 247 245 244 245 246 245 243 245 243 241 241 234 226 225 231 238 242 244 253 254 245 247 244
329 309 303 287 279 282 286 285 279 286 287 286 279 271 274 275 274 272 262 254 250 244 243 242 244 245 245 245 247 244 240 239 238 229 226 230 232 235 244 253 252 254 254
331 322 319 304 287 286 291 286 286 287 288 286 277 277 278 275 269 270 265 257 253 250 247 243 243 243 244 245 244 245 243 240 241 236 231 233 237 238 246 254 257 262 261
337 331 320 312 305 305 306 300 296 294 295 289 286 283 279 275 274 266 264 257 255 255 257 247 243 243 243 244 244 245 244 243 240 242 237 236 237 236 239 246 251 259 255
335 330 323 314 311 308 302 297 294 296 301 301 298 286 279 275 276 275 262 260 257 257 253 252 247 244 242 243 245 245 243 244 240 241 239 235 235 236 239 241 238 248 255
329 328 323 317 314 308 306 304 299 301 301 301 300 295 288 283 280 278 265 259 259 256 255 253 252 248 246 244 243 247 245 244 242 242 241 238 235 233 236 238 238 242 248
323 324 325 320 317 314 310 308 305 303 304 305 299 293 289 289 286 282 271 262 259 254 252 253 252 252 251 249 246 248 246 242 243 242 242 242 239 236 236 238 238 241 240
318 318 318 322 323 321 321 315 308 304 304 301 296 292 291 294 291 286 281 272 262 257 253 251 251 250 251 252 251 251 246 242 241 242 242 243 239 236 235 236 238 243 240
315 316 317 319 320 320 319 314 310 307 305 300 296 296 296 296 292 290 287 279 270 263 257 252 251 251 250 251 251 249 245 241 241 242 241 242 241 238 235 236 238 242 242
312 315 316 315 315 316 314 312 311 310 308 303 298 296 296 295 292 289 287 280 274 267 260 255 255 254 252 252 251 248 244 241 241 242 241 242 241 242 240 238 240 239 238
313 313 313 313 315 314 311 310 309 311 310 304 299 300 301 296 292 291 289 281 276 271 265 259 256 256 252 251 250 247 247 243 243 244 243 242 243 246 249 244 242 237 234
308 311 311 311 312 311 310 308 308 309 308 304 303 305 302 298 296 296 295 290 281 275 270 265 261 258 253 257 254 252 250 246 244 246 246 245 242 244 249 247 247 243 234
307 309 309 309 309 309 309 307 306 308 306 303 302 303 301 299 298 298 297 293 289 281 271 267 263 262 261 262 257 254 253 250 248 248 248 247 248 245 247 244 244 244 241
306 307 307 307 308 308 306 304 304 303 303 302 302 302 301 300 301 299 295 291 288 283 277 272 270 267 269 272 264 259 253 256 254 250 249 250 252 247 251 247 244 244 239
302 302 304 304 306 307 308 306 304 305 304 303 304 305 303 300 298 296 295 293 290 285 279 275 273 271 275 279 271 260 253 254 256 255 252 251 252 258 256 250 245 246 244
307 308 309 307 306 309 309 304 304 305 304 305 306 305 302 297 294 293 293 292 289 286 280 276 274 273 274 281 277 263 251 253 255 254 252 250 255 258 254 249 245 244 245
310 312 309 305 305 309 308 302 303 303 305 305 303 302 299 295 291 291 292 293 292 290 282 277 277 275 276 280 278 270 256 252 254 254 255 254 257 254 254 254 252 253 250
311 313 310 307 309 311 305 300 301 304 306 305 303 301 300 297 294 293 294 293 290 287 284 280 277 275 274 277 278 271 266 265 255 255 256 256 257 255 257 254 259 264 255
306 309 307 307 310 310 303 297 302 307 306 304 302 302 302 300 298 295 295 293 288 283 283 282 281 282 280 279 278 275 274 272 265 262 265 270 267 262 256 256 261 257 247
301 304 304 305 307 310 306 300 303 305 301 301 303 303 302 302 301 295 291 288 286 283 280 278 279 282 285 286 284 276 270 266 264 266 268 267 268 270 275 272 260 249 249
298 297 296 298 302 307 306 307 306 303 300 299 300 301 300 301 300 296 293 291 284 286 283 277 276 277 277 288 296 289 281 274 271 275 270 268 260 262 269 275 272 265 256
297 297 297 299 302 306 306 308 306 299 296 298 300 299 299 298 297 298 296 293 292 299 294 289 285 279 282 292 292 292 295 295 287 273 264 263 262 264 268 275 279 271 267